Location: Unspecified
(56.1945°N, 94.7461°E)
Time: 04:45:16
(UTC+07:00)

Daily predictions for brighter satellites

Satellite Brightness Start Highest point End
(mag) Time Altitude Azimuth Time Altitude Azimuth Time Altitude Azimuth
ATLAS 2AS CENTAUR R/B 4.3 03:23:17 28° ESE 03:23:17 28° ESE 03:26:16 10° ESE
Cosmos 2082 Rocket 4.2 03:29:34 24° ENE 03:29:34 24° ENE 03:31:55 10° NE
Cosmos 2360 Rocket 3.9 03:48:38 28° E 03:48:38 28° E 03:51:39 10° ESE
SJ 16-02 4.3 03:51:19 13° NE 03:51:19 13° NE 03:52:00 10° NE
USA 234 4.0 03:43:31 10° ENE 03:48:10 48° E 03:48:10 48° E
Cosmos 2237 Rocket 4.3 03:51:39 20° NNE 03:51:39 20° NNE 03:55:31 10° ENE
COSMOS 2428 4.5 03:53:35 27° NNE 03:53:35 27° NNE 03:58:06 10° E
Cosmos 2322 Rocket 4.4 04:04:32 17° SE 04:04:32 17° SE 04:05:46 10° SE
Lacrosse 5 3.7 04:08:56 28° E 04:08:56 28° E 04:11:20 10° ENE
ATLAS CENTAUR R/B 4.3 04:07:02 15° ESE 04:07:15 15° ESE 04:10:00 10° ENE
ADEOS II 4.4 04:10:01 10° N 04:10:58 15° N 04:10:58 15° N
CZ-2C R/B 4.1 04:22:56 10° NNE 04:27:09 29° E 04:29:04 22° SE
CZ-4C R/B 3.2 04:29:25 46° N 04:29:25 46° N 04:35:25 10° ENE
NOSS 3-4 (A) 4.0 04:31:31 59° SSE 04:31:31 59° SSE 04:37:36 10° SE
NOSS 3-4 (C) 4.0 04:31:36 60° SSE 04:31:36 60° SSE 04:37:42 10° SE
ADEOS 4.4 04:26:20 10° NNE 04:30:28 47° ENE 04:30:28 47° ENE
Cosmos 2219 Rocket 3.4 04:33:32 34° NNE 04:34:34 37° NE 04:39:48 10° ESE
Cosmos 2322 4.4 04:34:51 49° NNE 04:35:10 50° NE 04:40:41 10° ESE
NOSS 3-3 (A) 4.2 04:42:59 59° SSE 04:43:35 62° SE 04:50:22 10° NE
NOSS 3-3 (C) 4.3 04:43:04 58° SSE 04:43:42 61° SE 04:50:29 10° NE
Cosmos 2333 Rocket 3.2 04:44:54 36° N 04:46:21 43° NE 04:51:51 10° ESE
Cosmos 2151 4.4 04:50:50 37° ENE 04:50:50 37° ENE 04:54:03 10° NNE
H-2A R/B 3.6 04:47:32 10° NNE 04:51:30 46° E 04:51:30 46° E
Cosmos 839 Rocket 3.9 04:59:57 77° WSW 05:00:27 87° NW 05:06:39 10° NE
Cosmos 1606 4.4 05:00:59 32° ENE 05:00:59 32° ENE 05:04:10 10° SE
In-Cosmos 22 Rocket 4.3 05:01:38 39° S 05:03:39 70° E 05:09:15 10° NNE
Cosmos 967 Rocket 4.3 05:03:54 76° WNW 05:04:15 79° NW 05:10:44 10° NE
MSX 3.8 05:00:01 10° NNE 05:05:48 81° ESE 05:07:47 44° S
ATLAS 2AS CENTAUR R/B 3.3 05:10:47 42° SSW 05:10:47 42° SSW 05:16:20 10° SSE
Cosmos 1825 4.1 05:06:52 10° SSE 05:10:09 29° E 05:13:28 10° NNE
Cosmos 2082 Rocket 2.6 05:11:26 50° NNW 05:11:26 50° NNW 05:16:15 10° NNE
SL-16 R/B 4.0 05:08:34 18° N 05:10:52 23° NNE 05:15:21 10° ENE
RESURS DK-1 3.8 05:13:08 32° NNE 05:13:30 33° NE 05:17:16 10° ESE
Cosmos 990 Rocket 4.0 05:15:07 71° N 05:15:07 71° N 05:19:55 10° NNE
Cosmos 1833 Rocket 3.4 05:15:58 38° NNW 05:15:58 38° NNW 05:20:20 10° NNE
Tsikada Rocket 4.4 05:09:58 10° N 05:16:22 64° ENE 05:22:38 10° SSE
Cosmos 2100 Rocket 4.0 05:11:21 10° S 05:17:31 79° E 05:23:41 10° NNE
COSMOS 2406 4.4 05:21:17 28° NNW 05:21:17 28° NNW 05:25:38 10° NNE
Lacrosse 5 rocket 2.9 05:22:34 25° SE 05:22:34 25° SE 05:24:16 10° SE
Cosmos 1933 3.8 05:22:18 60° E 05:22:18 60° E 05:26:08 10° SSE
IDEFIX/ARIANE 42P 3.1 05:18:43 10° N 05:22:29 43° NNW 05:22:29 43° NNW
Meteor 1-31 Rocket 3.2 05:22:01 10° NNE 05:25:46 61° E 05:25:46 61° E
Cosmos 1048 Rocket 3.9 05:26:07 71° W 05:26:17 72° WSW 05:31:36 10° SSE
COBE Rocket 3.8 05:21:26 10° S 05:26:31 79° WSW 05:27:06 68° NW
SJ 16-02 2.3 05:28:20 36° N 05:28:20 36° N 05:31:08 10° NNE
Cosmos 1408 3.5 05:27:45 45° NE 05:27:45 45° NE 05:30:36 10° NNE
Cosmos 2237 4.1 05:26:45 64° W 05:27:04 66° WSW 05:32:43 10° SSE
Cosmos 1484 Rocket 4.2 05:26:23 10° NNE 05:30:11 39° E 05:33:58 10° SSE
Cosmos 2360 Rocket 2.1 05:30:27 60° WSW 05:30:38 61° WSW 05:36:12 10° SSE
Cosmos 1461 4.5 05:32:05 24° N 05:32:05 24° N 05:34:44 10° NE
Cosmos 1766 Rocket 3.4 05:31:27 85° SSE 05:31:33 87° ESE 05:35:59 10° NNE
USA 234 3.2 05:26:43 10° E 05:33:17 85° N 05:35:31 46° W
Cosmos 2237 Rocket 3.3 05:33:29 20° NNW 05:36:57 41° NE 05:42:18 10° ESE
SL-16 R/B 4.0 05:41:42 16° SSW 05:41:42 16° SSW 05:42:57 10° SSW
COSMOS 2428 2.9 05:35:37 31° NNW 05:38:30 73° NE 05:44:13 10° SE
COSMOS 2487 3.0 05:38:47 56° ESE 05:38:47 56° ESE 05:42:08 10° NNE
Meteor PRIRODA 4.2 05:35:58 10° NNE 05:39:36 55° E 05:43:11 10° S
Gbstr 26 Del rocket 3.5 05:39:51 41° SSE 05:39:51 41° SSE 05:43:16 10° ESE
Cosmos 1802 Rocket 4.0 05:33:30 10° S 05:39:56 86° E 05:46:21 10° NNE
Cosmos 2298 Rocket 4.2 05:36:48 13° SSW 05:41:35 73° ESE 05:46:54 10° NNE
Cosmos 1782 4.1 05:39:02 11° N 05:42:38 40° ENE 05:46:24 10° SE
Cosmos 2322 Rocket 3.7 05:46:25 21° SSW 05:46:25 21° SSW 05:48:38 10° SSW
Cosmos 2173 Rocket 3.8 05:37:33 10° SSW 05:43:47 78° WNW 05:49:58 10° N
ATLAS CENTAUR R/B 2.0 05:43:17 31° SSW 05:45:30 63° SE 05:50:08 10° NE
COSMO-SKYMED 1 2.4 05:41:24 10° SSE 05:45:45 81° WSW 05:47:01 46° NNW
Cosmos 2346 Rocket 4.3 05:39:43 10° NNW 05:45:50 79° W 05:51:52 10° S
USA 116 3.8 05:43:46 10° SSE 05:47:18 72° ENE 05:48:56 33° N
Lacrosse 5 1.8 05:48:09 55° W 05:49:17 82° N 05:54:23 10° E
Okean 3 Rocket 3.9 05:50:13 47° NNW 05:50:13 47° NNW 05:53:49 10° N
ADEOS II 4.1 05:50:51 10° N 05:51:54 13° NNW 05:51:54 13° NNW
Cosmos 1400 Rocket 2.7 05:56:06 39° NNW 05:57:33 83° WSW 06:01:34 10° S
STARLINK-80 3.8 05:58:45 47° SSW 05:59:19 52° S 06:03:04 10° E
STARLINK-60 4.2 06:00:52 34° S 06:00:52 34° S 06:03:40 10° SE
Cosmos 494 Rocket 3.9 05:58:32 32° NW 06:00:55 67° WSW 06:06:06 10° SSE
Cosmos 1151 Rocket 4.4 06:04:01 24° SW 06:04:01 24° SW 06:05:58 10° SSW
STARLINK-43 3.7 06:01:42 48° SSW 06:02:10 52° S 06:05:49 10° ESE
CZ-4B R/B 4.0 05:58:06 10° N 06:02:36 66° WNW 06:07:01 10° SSW
Cosmos 2061 Rocket 3.9 05:56:28 10° SSW 06:02:41 78° WNW 06:08:56 10° N
Cosmos 1980 4.2 05:59:08 18° NNW 06:03:18 56° NE 06:08:53 10° SE
Cosmos 1864 Rocket 4.5 05:57:10 10° S 06:03:21 87° ESE 06:09:38 10° NNE
CZ-2C R/B 2.4 06:00:57 10° N 06:05:42 53° WNW 06:08:25 23° SW
Cosmos 1898 Rocket 4.0 06:05:01 37° WNW 06:05:43 39° NW 06:10:44 10° NNE
STARLINK-61 4.3 06:04:54 32° SW 06:06:15 46° SSE 06:10:08 10° E
Cosmos 1937 Rocket 3.7 06:06:03 39° W 06:07:12 45° NW 06:12:10 10° NNE
ADEOS 4.2 06:06:12 10° N 06:10:52 34° WNW 06:11:15 33° WNW
Cosmos 2333 4.3 06:09:51 28° NW 06:12:50 57° WSW 06:18:28 10° SSE
STARLINK-26 4.4 06:12:31 26° SW 06:14:25 44° SSE 06:18:20 10° E
Cosmos 1269 Rocket 4.0 06:11:22 25° NW 06:14:28 62° WSW 06:19:41 10° S
Abrixas rocket 4.2 06:14:20 16° SSW 06:15:11 18° S 06:17:19 10° SE
Helios 1A Rocket 3.7 06:13:49 10° NNE 06:17:51 53° ESE 06:21:50 10° S
CZ-4C R/B 3.2 06:14:35 24° NW 06:18:23 50° NNE 06:25:40 10° E
Cosmos 2219 Rocket 2.1 06:15:17 22° NW 06:18:57 69° WSW 06:24:36 10° SSE
Cosmos 2322 4.0 06:16:50 28° WNW 06:19:23 46° WSW 06:24:45 10° S
Cosmos 1459 Rocket 4.2 06:15:25 10° SW 06:21:27 49° WNW 06:27:37 10° N
STARLINK-33 4.5 06:19:24 22° SW 06:21:44 44° SSE 06:25:42 10° E
CZ-4B R/B 3.8 06:17:06 10° NNE 06:22:27 59° ESE 06:27:52 10° S
PSLV R/B 3.7 06:19:07 10° N 06:23:00 68° WNW 06:26:56 10° SSW
STARLINK-50 4.5 06:21:01 21° SW 06:23:24 45° SSE 06:27:22 10° E
Meteor 2-3 Rocket 3.9 06:19:43 10° S 06:25:30 80° ESE 06:31:21 10° NNE
Okean O Rocket 2.0 06:21:10 10° NNE 06:25:30 63° ESE 06:29:50 10° S
Cosmos 1515 Rocket 4.1 06:25:09 33° WNW 06:25:37 34° W 06:29:32 10° SSW
CZ-4B R/B 3.0 06:22:23 10° N 06:25:47 38° WNW 06:26:05 38° W
Cosmos 1707 Rocket 3.9 06:22:04 10° N 06:26:34 67° ENE 06:31:01 10° SSE
Cosmos 2228 Rocket 3.3 06:22:50 14° NNW 06:26:40 49° W 06:31:04 10° SSW
STARLINK-56 4.4 06:24:11 20° SW 06:26:41 45° SSE 06:30:39 10° E
H-2A R/B 3.4 06:23:16 10° N 06:27:17 32° WNW 06:28:04 30° W
Cosmos 2151 3.7 06:27:30 30° WNW 06:27:30 30° WNW 06:31:16 10° N
Cosmos 2251 Rocket 3.8 06:22:38 11° NNW 06:27:40 67° ENE 06:32:53 10° SE
Starlink (trailer) 4.4 06:25:45 20° SW 06:28:19 46° SSE 06:32:18 10° E
STARLINK-38 4.4 06:27:23 19° SW 06:30:00 46° SSE 06:34:00 10° E
Cosmos 1125 Rocket 3.5 06:24:54 10° SSW 06:30:11 87° ESE 06:35:29 10° NNE
Cosmos 2333 Rocket 2.3 06:26:56 20° NW 06:30:53 57° WSW 06:36:31 10° SSE
STARLINK-52 4.2 06:30:16 27° WSW 06:31:20 34° SSW 06:34:34 10° SE
STARLINK-65 4.4 06:29:00 19° SW 06:31:40 47° SSE 06:35:39 10° E
SKYMED 2 4.3 06:30:13 10° SSW 06:34:07 32° W 06:35:42 25° WNW
NOSS 3-3 (A) 4.3 06:30:26 22° W 06:34:41 60° NNW 06:41:50 10° ENE
NOSS 3-3 (C) 4.3 06:30:32 22° W 06:34:46 60° NNW 06:41:57 10° ENE
Cosmos 1805 Rocket 4.1 06:31:18 10° S 06:35:33 60° E 06:39:52 10° NNE
Cosmos 372 Rocket 4.0 06:30:54 10° SW 06:35:57 57° NW 06:41:01 10° NNE
Cosmos 1606 3.4 06:36:04 30° W 06:36:24 30° W 06:39:46 10° SSW
STARLINK-69 4.4 06:33:49 18° SW 06:36:39 48° SSE 06:40:39 10° E
Cosmos 1743 Rocket 3.4 06:32:25 10° SSW 06:36:43 63° WNW 06:41:03 10° N
Cosmos 2016 Rocket 4.1 06:30:53 10° SSW 06:37:02 52° WNW 06:43:16 10° N
Cosmos 1174 4.1 06:35:58 22° NNW 06:37:46 43° NE 06:40:43 10° ESE
Cosmos 1725 Rocket 4.0 06:31:53 10° SSW 06:38:06 61° WNW 06:44:24 10° N
STARLINK-66 4.4 06:35:24 17° WSW 06:38:18 48° SSE 06:42:19 10° E
Aureole 1 Rocket 3.8 06:36:43 12° NNW 06:39:46 42° NE 06:43:49 10° SE
STARLINK-41 4.3 06:36:57 17° WSW 06:39:55 49° SSE 06:43:56 10° E
Cosmos 2150 Rocket 4.2 06:35:45 10° SW 06:41:04 54° NW 06:46:21 10° NNE
STARLINK-64 4.3 06:38:34 17° WSW 06:41:34 49° SSE 06:45:35 10° E
STARLINK-70 4.3 06:40:12 16° WSW 06:43:17 50° SSE 06:47:18 10° E
Cosmos 972 Rocket 4.2 06:37:57 10° SSW 06:43:18 88° ESE 06:49:20 10° NNE
STARLINK-29 4.4 06:41:59 21° WSW 06:43:23 29° SSW 06:46:27 10° SE
STARLINK-48 3.9 06:42:10 21° WSW 06:44:31 54° S 06:48:20 10° ESE
STARLINK-68 4.3 06:41:55 16° WSW 06:45:02 50° S 06:49:03 10° E
Cosmos 1825 2.8 06:42:11 10° SW 06:45:38 33° WNW 06:49:07 10° N
NOAA 6 4.1 06:41:20 10° NNE 06:46:30 86° ESE 06:51:38 10° SSW
STARLINK-58 4.3 06:43:22 15° WSW 06:46:34 50° S 06:50:36 10° E
Meteor 1-27 Rocket 4.3 06:40:46 10° N 06:46:35 63° ENE 06:52:27 10° SSE
STARLINK-62 4.3 06:45:04 15° WSW 06:48:18 51° S 06:52:19 10° E
STARLINK-63 4.3 06:46:36 14° WSW 06:49:54 51° S 06:53:57 10° E
Cosmos 1408 Rocket 4.3 06:46:45 10° SW 06:50:36 30° WNW 06:54:30 10° N
Cosmos 2084 Rocket 4.5 06:48:36 20° NW 06:51:09 35° N 06:55:15 10° ENE
STARLINK 4.3 06:47:56 14° WSW 06:51:22 50° S 06:55:24 10° E
RESURS DK-1 2.5 06:49:04 20° NW 06:51:46 53° WSW 06:55:47 10° SSE
Cosmos 1437 3.4 06:51:32 20° WSW 06:52:52 29° WNW 06:55:37 10° N
STARLINK-72 4.3 06:49:40 14° WSW 06:53:07 51° S 06:57:10 10° E
Cosmos 1812 3.4 06:51:04 10° N 06:54:54 56° ENE 06:58:43 10° SSE
Cosmos 2082 Rocket 3.5 06:53:18 17° WNW 06:55:59 23° NNW 07:00:28 10° NNE
SL-16 R/B 2.8 06:50:38 10° NNW 06:56:15 54° NE 07:01:50 10° SE
MOS 1-B 4.4 06:50:43 10° NNE 06:56:25 60° WNW 07:02:07 10° SW
STARLINK-59 4.2 06:52:57 13° WSW 06:56:30 52° S 07:00:32 10° E
SJ-12 4.2 06:52:46 10° N 06:56:46 46° WNW 07:00:45 10° SW
ALOS 2.3 06:53:15 10° N 06:57:52 60° WNW 07:02:28 10° SSW
STARLINK-57 4.2 06:54:33 13° WSW 06:58:10 52° S 07:02:13 10° E
CZ-2C R/B 4.4 06:53:36 10° ESE 06:58:15 29° ENE 07:02:50 10° N
ATLAS 2AS CENTAUR R/B 4.4 06:58:16 12° W 06:58:37 12° W 07:01:11 10° WSW
Cosmos 1500 Rocket 3.8 06:54:38 10° SW 06:58:55 46° WNW 07:03:13 10° N
Lacrosse 5 rocket 3.0 06:58:14 13° WSW 06:59:13 14° SW 07:01:05 10° SSW
Meteor 2-6 Rocket 4.1 06:54:24 10° NNW 06:59:48 68° W 07:05:16 10° S
Meteor 1-31 Rocket 4.1 06:57:04 10° N 06:59:57 20° WNW 07:01:08 18° W
Cosmos 1633 Rocket 4.1 06:56:02 10° S 07:00:14 50° E 07:04:30 10° NNE
PAYLOAD B 4.2 06:54:59 10° NNE 07:00:27 66° WNW 07:05:53 10° SSW
Cosmos 1833 Rocket 4.2 06:57:41 15° NW 07:00:27 20° NNW 07:04:34 10° NNE
SMAP 3.9 06:56:28 10° NNE 07:01:05 55° E 07:05:39 10° S
STARLINK-28 4.2 06:57:47 12° WSW 07:01:30 53° S 07:05:33 10° E
Sich 1 3.1 06:57:55 10° S 07:02:11 79° E 07:06:31 10° NNE
CZ-4B DEB 4.2 06:56:51 10° NNE 07:02:14 58° WNW 07:07:37 10° SW
Cosmos 1408 4.0 07:02:12 19° WNW 07:02:23 19° WNW 07:05:03 10° NNW
IDEFIX/ARIANE 42P 4.1 06:59:32 10° N 07:02:27 15° NW 07:03:17 15° NW
Cosmos 1315 Rocket 3.1 06:58:47 10° NNW 07:02:40 45° W 07:06:33 10° S
STARLINK-75 4.2 06:59:02 12° WSW 07:02:44 54° S 07:06:47 10° E
STARLINK-53 4.2 07:00:14 11° WSW 07:04:04 54° S 07:08:07 10° E
Cosmos 1484 Rocket 3.6 07:00:59 10° N 07:04:31 30° WNW 07:08:04 10° SW
STARLINK-54 4.2 07:00:59 11° WSW 07:04:50 54° S 07:08:54 10° E
SJ 16-02 3.0 07:05:21 15° NW 07:06:19 16° NW 07:08:59 10° N
NOSS 0 Rocket 4.1 07:01:19 11° NW 07:07:16 55° WSW 07:13:20 10° SSE
ADEOS Rocket 3.5 07:00:15 10° SSE 07:07:54 87° WSW 07:14:58 10° NNW
STARLINK-37 4.2 07:04:52 10° WSW 07:08:51 54° S 07:12:54 10° E
STARLINK-55 4.2 07:05:39 10° WSW 07:09:41 54° S 07:13:44 10° E
BREEZE-M DEB (TANK) 3.6 07:09:20 10° SW 07:10:39 14° SSW 07:11:58 10° SSE
STARLINK-34 4.2 07:07:22 10° WSW 07:11:25 54° S 07:15:28 10° E
Cosmos 1461 4.3 07:08:29 13° NW 07:11:26 26° NNE 07:14:57 10° ENE
Radarsat Rocket 4.1 07:06:27 10° NNE 07:12:20 83° ESE 07:18:18 10° SSW
STARLINK-81 4.2 07:08:53 10° WSW 07:12:56 54° S 07:17:00 10° E
Cosmos 2360 Rocket 3.8 07:12:17 13° W 07:13:31 14° W 07:16:12 10° SW
STARLINK-24 4.2 07:09:28 10° WSW 07:13:32 55° S 07:17:36 10° E
COSMOS 2487 3.8 07:12:25 15° W 07:14:09 21° NW 07:16:50 10° N
H-2A R/B 3.0 07:11:06 10° NNE 07:14:50 71° ESE 07:18:32 10° S
STARLINK-77 4.2 07:12:10 10° WSW 07:16:13 55° S 07:20:17 10° E
USA 234 3.3 07:09:49 10° ESE 07:16:23 86° SSW 07:22:51 11° WNW
Cosmos 1666 Rocket 3.7 07:13:03 10° S 07:17:31 83° E 07:21:58 10° NNE
STARLINK-25 4.2 07:13:46 10° WSW 07:17:51 55° S 07:21:56 10° E
Cosmos 1782 3.8 07:15:26 10° NNW 07:18:50 27° W 07:22:12 10° SSW
Cosmos 1633 2.5 07:15:26 10° SSW 07:19:04 84° WNW 07:22:45 10° N
STARLINK-71 4.2 07:15:41 10° WSW 07:19:44 55° S 07:23:48 10° E
STARLINK-79 4.2 07:17:10 10° WSW 07:21:13 55° S 07:25:17 10° E
Cosmos 2237 Rocket 2.3 07:15:43 10° NW 07:21:19 60° WSW 07:26:52 10° SSE
Cosmos 1238 Rocket 4.1 07:16:05 10° SW 07:21:54 42° WNW 07:26:56 10° N
COSMOS 2428 3.6 07:17:39 11° NW 07:22:20 29° WSW 07:27:10 10° SSW
COSMO-SKYMED 1 4.3 07:20:29 10° WSW 07:22:39 13° W 07:24:12 12° WNW
STARLINK-78 4.2 07:18:47 10° WSW 07:22:51 55° S 07:26:55 10° E
ATLAS CENTAUR R/B 2.1 07:20:05 10° W 07:24:42 44° NNW 07:29:06 10° NE
Nadezhda 4 Rocket 4.0 07:18:52 10° NNW 07:25:14 82° W 07:31:31 10° S
METEOR-M 4.4 07:20:12 10° N 07:25:16 45° WNW 07:30:20 10° SW
Gbstr 26 Del rocket 3.8 07:22:35 10° W 07:26:02 35° SSW 07:29:31 10° SE
STARLINK-49 4.2 07:22:05 10° WSW 07:26:09 56° S 07:30:13 10° E
STARLINK-27 4.2 07:23:46 10° WSW 07:27:50 56° S 07:31:54 10° E
STARLINK-74 4.2 07:25:26 10° WSW 07:29:30 56° S 07:33:34 10° E
Cosmos 1833 4.4 07:24:08 10° WSW 07:29:36 50° NW 07:35:07 10° NNE
Cosmos 2034 Rocket 4.3 07:24:22 10° S 07:30:36 78° E 07:36:56 10° NNE
STARLINK-39 4.2 07:27:05 10° WSW 07:31:09 56° S 07:35:12 10° E
Lacrosse 5 1.9 07:27:21 10° WNW 07:32:24 84° SSW 07:37:29 10° ESE
STARLINK 4.2 07:28:43 10° WSW 07:32:47 56° S 07:36:51 10° E
STARLINK-42 4.2 07:29:46 10° WSW 07:33:50 56° S 07:37:55 10° ESE
Cosmos 1818 4.0 07:30:01 10° SSW 07:35:26 68° SE 07:40:53 10° NE
STARLINK-21 4.2 07:32:10 10° WSW 07:36:14 56° S 07:40:18 10° ESE
STARLINK-80 4.3 07:33:44 10° W 07:37:23 43° SSW 07:41:02 10° SE
STARLINK-45 4.2 07:33:59 10° WSW 07:38:03 56° S 07:42:07 10° ESE
Cosmos 614 Rocket 4.3 07:33:16 10° NNW 07:38:23 68° ENE 07:43:26 10° SE
FENGYUN 3A 4.1 07:33:59 10° N 07:38:59 39° WNW 07:43:58 10° SW
STARLINK-76 4.2 07:37:03 10° WSW 07:41:07 56° S 07:45:11 10° ESE
STARLINK 4.2 07:38:42 10° WSW 07:42:46 56° S 07:46:50 10° ESE
CZ-2C R/B 4.1 07:40:36 10° NNW 07:42:57 14° NW 07:45:15 10° WNW
STARLINK-32 4.2 07:40:21 10° WSW 07:44:25 56° S 07:48:29 10° ESE
STARLINK-61 4.2 07:41:10 10° W 07:45:06 53° S 07:49:04 10° ESE
Cosmos 1703 Rocket 4.0 07:40:36 10° N 07:45:07 71° ENE 07:49:36 10° SSE
CZ-2C R/B 4.2 07:40:59 10° S 07:45:23 44° W 07:49:53 10° NNW
Okean-O 2.8 07:41:00 10° NNE 07:45:29 79° ESE 07:49:56 10° SSW
Cosmos 1862 Rocket 3.8 07:41:13 10° NNW 07:45:30 51° W 07:49:47 10° S
STARLINK-40 4.2 07:42:01 10° W 07:46:05 56° S 07:50:09 10° ESE
IRS-1C Rocket 4.1 07:41:45 10° NNE 07:47:01 72° WNW 07:52:16 10° SSW
Cosmos 1980 4.3 07:42:03 10° NW 07:47:17 39° WSW 07:52:30 10° S
STARLINK-44 4.2 07:43:40 10° W 07:47:44 56° S 07:51:48 10° ESE
Cosmos 1470 Rocket 3.8 07:44:32 10° S 07:48:59 81° E 07:53:29 10° NNE
STARLINK-36 4.2 07:45:21 10° W 07:49:25 56° S 07:53:29 10° ESE
Timation 2 Rocket 3.9 07:43:31 10° SW 07:49:30 69° NW 07:55:31 10° NE
Cosmos 1862 3.4 07:46:07 10° SSW 07:50:00 54° WNW 07:53:55 10° N
Envisat 3.3 07:45:36 10° NNE 07:50:43 75° ESE 07:55:48 10° S
Feng Yun 1-1 Rocket 4.2 07:45:18 10° NNE 07:50:43 77° WNW 07:56:10 10° SSW
Cosmos 2026 Rocket 4.2 07:44:58 10° N 07:51:05 79° ENE 07:57:11 10° SSE
